Regional Weather Roundup
Issued by NWS New Orleans/Baton Rouge, LA

Home | Current Version | Previous Version | Graphics & Text | Print | Product List | Glossary On
Versions: 1 2 3 4 5 6 7 8 9 10 11 12 13 14 15 16 17 18 19 20 21 22 23 24 25 26 27 28 29 30 31 32 33 34 35 36 37 38 39 40 41 42 43 44 45 46 47 48 49 50
641
ASUS44 KLIX 230510
RWRLIX
NEW ORLEANS REGIONAL WEATHER ROUNDUP
NATIONAL WEATHER SERVICE NEW ORLEANS LA
1200 AM CDT WED APR 23 2014

NOTE: "FAIR" INDICATES FEW OR NO CLOUDS BELOW 12,000 FEET WITH NO
      SIGNIFICANT WEATHER AND/OR OBSTRUCTIONS TO VISIBILITY.
      SKY/WX - SKY CONDITION AND SIGNIFICANT WEATHER.
      TMP - AIR TEMPERATURE.     DP    - DEWPOINT TEMPERATURE.
      RH  - RELATIVE HUMIDITY.   PRES  - PRESSURE.
      HI  - HEAT INDEX.          WCI   - WIND CHILL INDEX.

*  THESE STATIONS ARE NOT NWS OR FAA STATIONS AND ARE NOT UNDER
   NWS QUALITY CONTROL.

LAZ038-040-048-061>063-065>067-069-230600-
SOUTHEAST LOUISIANA

CITY           SKY/WX    TMP DP  RH WIND       PRES   REMARKS
N.O. AUDUBON     N/A     67  64  89 MISG        N/A
N.O. INTL ARPT CLEAR     69  65  86 N3        29.93S
N.O. LAKEFRONT CLEAR     70  65  84 NW3       29.94S
N.O. DOWNTOWN*   N/A     72  61  68 CALM      29.94S
SLIDELL        CLEAR     62  59  90 CALM      29.92F
BATON ROUGE    CLEAR     63  59  87 CALM      29.95S
BOOTHVILLE     CLEAR     69  68  96 W5        29.93S FOG
BELLE CHASSE   CLEAR     62  59  90 CALM      29.93S FOG
BOGALUSA*        N/A     61  58  89 CALM      29.95S
GALLIANO*      CLEAR     65  64  93 CALM      29.94S FOG
NEW ROADS*       N/A     63  61  94 CALM      29.95S
GONZALES*        N/A     62  62 100 CALM      29.94S
HAMMOND*       CLEAR     63  59  88 CALM      29.95F
HOUMA*         FOG       67  65  93 CALM      29.94S VSB 1/4
PORT FOURCHON* MOCLDY    72  68  88 W7        29.95F

$$

MSZ070-080>082-230600-
SOUTHERN MISSISSIPPI

CITY           SKY/WX    TMP DP  RH WIND       PRES   REMARKS
MCCOMB         CLEAR     60  58  92 CALM      29.95S
GULFPORT       CLEAR     69  63  81 N6        29.91F
BILOXI         CLEAR     67  65  93 N1        29.92S
PASCAGOULA     CLEAR     62  62 100 CALM      29.92S FOG

$$

COASTAL OBSERVATIONS
LAKE AND NEARSHORE STATIONS

STATION/POSITION TIME  TEMP    WIND        PRES    WAVE
                       AIR SEA DIR/SP/G            HT/PER
                 (UTC) (F)     (DEG/KT/KT) (MB)    (FT/S)
PASCAGOULA       0500   68     350/  7/  9 1012.2
WAVELAND YACHT   0500   68 72  310/  3/  4 1012.4
GRAND ISLE       0500   71 72  290/ 11/ 12 1014.1
SOUTHWEST PASS   0500   66 60  260/ 11/ 11 1014.0
NEW CANAL        0500   71 69  340/  2/  3 1014.0
SHELL BEACH      0500   70 68  340/  6/  8 1013.3

OFFSHORE STATIONS

STATION/POSITION TIME  TEMP    WIND        PRES    WAVE
                       AIR SEA DIR/SP/G            HT/PER
                 (UTC) (F)     (DEG/KT/KT) (MB)    (FT/S)
64 S DAUPHIN ISL 0409   69 69  250/ 10/ 12 1013.4

$$




USA.gov is the U.S. government's official web portal to all federal, state and local government web resources and services.